"2010-04-22 00:00:00",46540,3.297,28.89,1.57,0.533,10.08,104.3007,10.28,11.3,69.71,0,110.2,13.38,11.07,350.9
"2010-04-22 00:00:30",46541,3.141,28.86,1.215,0.12,9.66,104.3007,10.28,11.27,69.63,0,110.2,13.41,11.07,350.9
"2010-04-22 00:01:00",46542,3.284,29.78,1.653,0.191,9.78,104.3007,10.28,11.26,69.64,0,110.2,13.41,11.07,351.8
"2010-04-22 00:01:30",46543,3.195,29.89,1.638,0.171,10.21,104.3001,10.28,11.28,69.65,0,110.2,13.41,11.07,351.9
"2010-04-22 00:02:00",46544,4.165,34.4,6.41,1.317,11.92,104.3001,10.28,11.47,69.81,0,110.2,13.38,11.07,356.4
"2010-04-22 00:02:30",46545,6.527,47.28,6.691,1.233,14.61,104.3004,10.28,11.54,69.89,0,110.2,13.38,11.07,9.3
"2010-04-22 00:03:00",46546,7.072,55.21,5.511,0.961,15.37,104.2999,10.28,11.59,69.96,0,110.2,13.38,11.07,17.2
"2010-04-22 00:03:30",46547,6.526,49.3,6.308,1.366,13.65,104.299,10.28,11.48,69.88,0,110.2,13.38,11.07,11.3
"2010-04-22 00:04:00",46548,4.584,39.9,5.862,0.469,10.5,104.2996,10.28,11.37,69.83,0,110.2,13.41,11.07,1.9
"2010-04-22 00:04:30",46549,3.983,41.14,4.291,0.383,10.07,104.2993,10.28,11.28,69.7,0,110.2,13.41,11.07,3.1
"2010-04-22 00:05:00",46550,4.288,42.94,2.861,0.154,10.25,104.2996,10.28,11.27,69.89,0,110.2,13.41,11.07,4.9
"2010-04-22 00:05:30",46551,4.744,48.23,7.454,1.383,12.65,104.3007,10.28,11.33,70.02,0,110.2,13.38,11.07,10.2
"2010-04-22 00:06:00",46552,5.425,48.87,6.688,1.516,13.1,104.3004,10.28,11.45,70.19,0,110.2,13.38,11.07,10.9
"2010-04-22 00:06:30",46553,5.704,46.04,6.927,1.395,13.84,104.3007,10.28,11.52,70.15,0,110.2,13.38,11.07,8.0
"2010-04-22 00:07:00",46554,5.399,59,8.18,1.533,14.74,104.3007,10.28,11.54,70.19,0,110.2,13.38,11.07,21.0
"2010-04-22 00:07:30",46555,5.945,60.15,12.3,1.145,13.33,104.3007,10.28,11.47,70.36,0,110.2,13.38,11.07,22.2
"2010-04-22 00:08:00",46556,5.112,44.95,3.253,0.192,10.19,104.3007,10.28,11.28,70.1,0,110.2,13.41,11.07,7.0
"2010-04-22 00:08:30",46557,5.126,41.13,2.537,0.265,10.29,104.3007,10.28,11.29,70.07,0,110.2,13.41,11.07,3.1
"2010-04-22 00:09:00",46558,5,48.04,5.059,0.199,10.83,104.3007,10.28,11.29,70.11,0,110.2,13.41,11.07,10.0
"2010-04-22 00:09:30",46559,5.352,47.35,8.71,1.561,13.09,104.3007,10.28,11.52,70.45,0,110.2,13.37,11.07,9.3
"2010-04-22 00:10:00",46560,6.676,59.58,6.765,1.351,15.09,104.3007,10.28,11.55,70.51,0,110.2,13.37,11.07,21.6
"2010-04-22 00:10:30",46561,6.757,57.99,7.196,1.009,15.94,104.3007,10.28,11.64,70.78,0,110.2,13.37,11.07,20.0
"2010-04-22 00:11:00",46562,6.658,63.48,7.917,1.29,14.25,104.3055,10.3,11.48,70.66,0,110.2,13.37,11.08,25.5
"2010-04-22 00:11:30",46563,4.736,36.86,3.643,0.595,10.29,104.3148,10.32,11.32,70.27,0,110.2,13.41,11.11,358.9
"2010-04-22 00:12:00",46564,4.486,40.69,2.849,0.18,10.07,104.3233,10.34,11.32,69.96,0,110.2,13.4,11.13,2.7
"2010-04-22 00:12:30",46565,4.69,44.93,1.419,0.101,10.34,104.3298,10.36,11.32,69.89,0,110.2,13.41,11.15,6.9
"2010-04-22 00:13:00",46566,4.994,45.68,4.285,0.503,11.36,104.332,10.36,11.43,69.96,0,110.2,13.41,11.15,7.7
"2010-04-22 00:13:30",46567,6.511,49.3,9.72,1.528,15.11,104.3334,10.37,11.54,70.01,0,110.2,13.37,11.16,11.3
"2010-04-22 00:14:00",46568,6.494,51.16,5.353,1.218,15.2,104.334,10.37,11.66,70.08,0,110.2,13.37,11.16,13.2
"2010-04-22 00:14:30",46569,6.396,46.67,8.15,1.412,14.64,104.3346,10.37,11.56,69.93,0,110.2,13.37,11.16,8.7
"2010-04-22 00:15:00",46570,4.874,41.98,6.158,0.932,11.33,104.3346,10.37,11.48,69.79,0,110.2,13.37,11.16,4.0
"2010-04-22 00:15:30",46571,4.507,53.68,5.553,0.6,10.19,104.3337,10.37,11.34,69.73,0,110.2,13.41,11.16,15.7
"2010-04-22 00:16:00",46572,3.225,41.42,8.03,0.306,10.15,104.3343,10.37,11.34,70.24,0,110.2,13.41,11.16,3.4
"2010-04-22 00:16:30",46573,3.416,33.63,7.317,1.476,11.38,104.3343,10.37,11.33,70.03,0,110.2,13.38,11.16,355.6
"2010-04-22 00:17:00",46574,4.266,47.49,8.32,0.95,11.94,104.334,10.37,11.45,70.03,0,110.2,13.38,11.16,9.5
"2010-04-22 00:17:30",46575,6.027,57.31,7.332,1.128,15.39,104.3323,10.36,11.61,70.22,0,110.2,13.38,11.15,19.3
"2010-04-22 00:18:00",46576,5.521,45.99,11.23,1.502,14.88,104.3306,10.36,11.61,70.17,0,110.2,13.38,11.15,8.0
"2010-04-22 00:18:30",46577,4.199,42.16,7.217,1.386,12.85,104.3261,10.35,11.59,70.07,0,110.2,13.38,11.14,4.2
"2010-04-22 00:19:00",46578,4.645,41.57,7.505,1.45,11.91,104.321,10.34,11.38,69.88,0,110.2,13.38,11.12,3.6
"2010-04-22 00:19:30",46579,2.766,24.57,9.89,0.477,9.86,104.3154,10.32,11.35,69.85,0,110.2,13.41,11.11,346.6
"2010-04-22 00:20:00",46580,4.639,39.43,6.118,0.624,9.85,104.3058,10.3,11.33,69.85,0,110.2,13.41,11.08,1.4
"2010-04-22 00:20:30",46581,5.083,38.79,9.48,1.534,11.99,104.3007,10.28,11.46,69.98,0,110.2,13.38,11.07,0.8
"2010-04-22 00:21:00",46582,4.855,42,8.8,0.909,11.89,104.3007,10.28,11.43,70.1,0,110.2,13.38,11.07,4.0
"2010-04-22 00:21:30",46583,7.138,52.69,6.43,1.189,15.29,104.3007,10.28,11.65,70.56,0,110.2,13.38,11.07,14.7
"2010-04-22 00:22:00",46584,7.479,63.86,8.96,1.223,15.53,104.3007,10.28,11.6,70.99,0,110.2,13.38,11.07,25.9
"2010-04-22 00:22:30",46585,5.526,52.49,6.483,1.289,12.01,104.3007,10.28,11.52,71.33,0,110.2,13.38,11.07,14.5
"2010-04-22 00:23:00",46586,5.153,54.14,5.407,1.121,11.59,104.3007,10.28,11.41,71.04,0,110.2,13.38,11.07,16.1
"2010-04-22 00:23:30",46587,4.411,42.31,4.127,0.394,10.13,104.3007,10.28,11.3,70.95,0,110.2,13.41,11.07,4.3
"2010-04-22 00:24:00",46588,3.981,39.77,5.752,0.507,10.5,104.3007,10.28,11.3,70.84,0,110.2,13.42,11.07,1.8
"2010-04-22 00:24:30",46589,4.451,32.25,7.741,1.436,12.89,104.2979,10.28,11.44,70.77,0,110.2,13.38,11.06,354.2
"2010-04-22 00:25:00",46590,3.855,35.01,7.252,0.916,11.19,104.2939,10.27,11.39,70.57,0,110.2,13.38,11.05,357.0
"2010-04-22 00:25:30",46591,4.998,45.12,8.08,1.25,14.16,104.2897,10.25,11.54,70.7,0,110.2,13.38,11.04,7.1
"2010-04-22 00:26:00",46592,4.402,31.19,9.73,1.167,13.9,104.2841,10.24,11.55,70.7,0,110.2,13.38,11.03,353.2
"2010-04-22 00:26:30",46593,3.852,38.48,14.32,0.598,11.41,104.2756,10.22,11.44,70.71,0,110.2,13.38,11.01,0.5
"2010-04-22 00:27:00",46594,4.276,43.83,4.902,0.333,9.85,104.2677,10.2,11.27,70.79,0,110.2,13.41,10.99,5.8
"2010-04-22 00:27:30",46595,4.011,60.59,7.057,0.303,10.22,104.2668,10.2,11.27,70.99,0,110.2,13.41,10.98,22.6
"2010-04-22 00:28:00",46596,5.12,50.83,4.84,1.308,12.5,104.2668,10.2,11.4,71.17,0,110.2,13.38,10.98,12.8
"2010-04-22 00:28:30",46597,4.923,48.22,10.81,0.864,12.03,104.2668,10.2,11.4,70.97,0,110.2,13.37,10.98,10.2
"2010-04-22 00:29:00",46598,4.272,53.92,7.631,1.101,12.12,104.2668,10.2,11.36,71.27,0,110.2,13.38,10.98,15.9
"2010-04-22 00:29:30",46599,5.842,66.94,6.991,1.302,14.41,104.2668,10.2,11.52,71.98,0,110.2,13.37,10.98,28.9
"2010-04-22 00:30:00",46600,5.685,58.3,10.03,1.278,13.63,104.2668,10.2,11.48,72.3,0,110.2,13.37,10.98,20.3
"2010-04-22 00:30:30",46601,3.694,46.28,4.613,0.616,10.38,104.2668,10.2,11.24,72.2,0,110.2,13.41,10.98,8.3
"2010-04-22 00:31:00",46602,2.318,31.16,9.5,0.358,9.93,104.2668,10.2,11.23,72.27,0,110.2,13.41,10.98,353.2
"2010-04-22 00:31:30",46603,2.339,27.36,4.364,0.245,9.91,104.2668,10.2,11.24,71.95,0,110.2,13.41,10.98,349.4
"2010-04-22 00:32:00",46604,3.569,38.28,8.74,1.5,12.38,104.2668,10.2,11.32,71.53,0,110.2,13.38,10.98,0.3
"2010-04-22 00:32:30",46605,3.517,29.18,9.39,1.286,12.67,104.2668,10.2,11.45,71.25,0,110.2,13.38,10.98,351.2
"2010-04-22 00:33:00",46606,3.744,43.83,7.894,1.191,12.59,104.2668,10.2,11.37,71.03,0,110.2,13.38,10.98,5.8
"2010-04-22 00:33:30",46607,3.844,38.1,6.381,1.358,11.7,104.2668,10.2,11.31,70.82,0,110.2,13.38,10.98,0.1
"2010-04-22 00:34:00",46608,5.983,51.86,8.02,1.119,14.08,104.2666,10.2,11.49,71.25,0,110.2,13.38,10.98,13.9
"2010-04-22 00:34:30",46609,6.05,47.02,7.464,1.385,13.72,104.266,10.19,11.43,72.15,0,110.2,13.38,10.98,9.0
"2010-04-22 00:35:00",46610,3.715,27.83,11.71,0.484,10.43,104.262,10.18,11.21,72.1,0,110.2,13.42,10.97,349.8
"2010-04-22 00:35:30",46611,4.298,29.36,5.88,1.269,11.49,104.2578,10.17,11.22,71.95,0,110.2,13.38,10.96,351.4
"2010-04-22 00:36:00",46612,4.228,38.09,5.133,1.029,12.51,104.2587,10.18,11.34,71.74,0,110.2,13.38,10.96,0.1
"2010-04-22 00:36:30",46613,4.503,26.15,10.74,1.489,11.81,104.2547,10.17,11.35,71.6,0,110.2,13.38,10.95,348.1
"2010-04-22 00:37:00",46614,4.19,20.3,9.22,1.569,12.4,104.2502,10.15,11.27,71.58,0,110.2,13.38,10.94,342.3
"2010-04-22 00:37:30",46615,2.839,20.88,8.57,0.769,10.49,104.2502,10.15,11.27,71.67,0,110.2,13.42,10.94,342.9
"2010-04-22 00:38:00",46616,3.899,20.61,11.78,1.522,13.83,104.2468,10.15,11.37,71.87,0,110.2,13.38,10.93,342.6
"2010-04-22 00:38:30",46617,5.47,39.16,10.86,1.507,13.84,104.2409,10.13,11.42,71.91,0,110.2,13.38,10.92,1.2
"2010-04-22 00:39:00",46618,4.185,28.29,6.22,0.953,10.44,104.2333,10.11,11.18,71.62,0,110.2,13.39,10.90,350.3
"2010-04-22 00:39:30",46619,4.826,36.54,10.55,1.484,12.35,104.2335,10.11,11.33,71.87,0,110.2,13.38,10.90,358.5
"2010-04-22 00:40:00",46620,4.276,37.85,5.391,1.331,11.69,104.233,10.11,11.32,72.03,0,110.2,13.38,10.90,359.9
"2010-04-22 00:40:30",46621,4.808,40.89,4.558,0.69,11.48,104.233,10.11,11.31,72.18,0,110.2,13.39,10.90,2.9
"2010-04-22 00:41:00",46622,4.717,31.47,8.84,1.46,12.19,104.233,10.11,11.2,71.96,0,110.2,13.39,10.90,353.5
"2010-04-22 00:41:30",46623,3.3,23.9,4.884,1.001,10.95,104.233,10.11,11.21,71.93,0,110.2,13.38,10.90,345.9
"2010-04-22 00:42:00",46624,4.233,27.59,14.31,2.308,13.27,104.233,10.11,11.29,71.98,0,110.2,13.38,10.90,349.6
"2010-04-22 00:42:30",46625,4.41,29.87,8.17,1.413,12.77,104.233,10.11,11.33,71.99,0,110.2,13.38,10.90,351.9
"2010-04-22 00:43:00",46626,3.104,29.21,3.958,0.377,10.44,104.233,10.11,11.32,72.06,0,110.2,13.42,10.90,351.2
"2010-04-22 00:43:30",46627,4.431,35.74,11.27,1.504,12.44,104.233,10.11,11.24,72.03,0,110.2,13.38,10.90,357.7
"2010-04-22 00:44:00",46628,3.166,16.28,8.6,1.216,12.68,104.233,10.11,11.31,72.1,0,110.2,13.38,10.90,338.3
"2010-04-22 00:44:30",46629,3.222,20.13,7.072,0.898,12.12,104.233,10.11,11.3,71.83,0,110.2,13.38,10.90,342.1
"2010-04-22 00:45:00",46630,3.112,17.17,11.02,0.995,10.45,104.233,10.11,11.15,71.47,0,110.2,13.38,10.90,339.2
"2010-04-22 00:45:30",46631,3.095,19.06,5.481,0.736,10.32,104.2333,10.11,11.16,71.37,0,110.2,13.42,10.90,341.1
"2010-04-22 00:46:00",46632,4.744,30.5,7.892,1.097,12.76,104.233,10.11,11.32,71.53,0,110.2,13.38,10.90,352.5
"2010-04-22 00:46:30",46633,2.328,15.56,12.57,1.089,10.78,104.233,10.11,11.2,71.52,0,110.2,13.42,10.90,337.6
"2010-04-22 00:47:00",46634,3.543,13.01,19.67,2.575,12.42,104.233,10.11,11.37,71.79,0,110.2,13.38,10.90,335.0
"2010-04-22 00:47:30",46635,4.889,36.41,7.21,1.387,12.83,104.233,10.11,11.31,71.99,0,110.2,13.38,10.90,358.4
"2010-04-22 00:48:00",46636,3.807,24.83,6.057,1.02,12.02,104.2333,10.11,11.31,72.16,0,110.2,13.38,10.90,346.8
"2010-04-22 00:48:30",46637,4.59,27.7,6.219,1.172,12.18,104.233,10.11,11.31,72.27,0,110.2,13.39,10.90,349.7
"2010-04-22 00:49:00",46638,2.786,15.96,4.281,0.71,10.3,104.233,10.11,11.16,72.12,0,110.2,13.42,10.90,338.0
"2010-04-22 00:49:30",46639,2.518,15.14,5.055,0.575,10.24,104.233,10.11,11.17,72.11,0,110.2,13.42,10.90,337.1
"2010-04-22 00:50:00",46640,4.576,27.01,8.39,1.629,12.68,104.2333,10.11,11.31,72.19,0,110.2,13.39,10.90,349.0
"2010-04-22 00:50:30",46641,3.511,17.99,8.43,1.167,12.27,104.2333,10.11,11.33,72.13,0,110.2,13.39,10.90,340.0
"2010-04-22 00:51:00",46642,3.875,23.97,6.242,0.964,11.75,104.2336,10.11,11.21,71.88,0,110.2,13.39,10.90,346.0
"2010-04-22 00:51:30",46643,4.948,30.31,6.706,1.304,13.63,104.233,10.11,11.4,72.01,0,110.2,13.39,10.90,352.3
"2010-04-22 00:52:00",46644,4.396,29.73,7.129,1.31,12.84,104.233,10.11,11.45,72.05,0,110.2,13.39,10.90,351.7
"2010-04-22 00:52:30",46645,4.618,28.73,9.23,1.181,11.89,104.2333,10.11,11.22,71.88,0,110.2,13.39,10.90,350.7
"2010-04-22 00:53:00",46646,3.708,24.1,5.494,0.572,10.61,104.2342,10.11,11.25,71.99,0,110.2,13.42,10.90,346.1
"2010-04-22 00:53:30",46647,3.066,14.24,7.187,0.48,10.25,104.2342,10.11,11.24,71.87,0,110.2,13.42,10.90,336.2
"2010-04-22 00:54:00",46648,4.204,22.38,8.19,1.412,12.73,104.2353,10.12,11.26,71.87,0,110.2,13.39,10.90,344.4
"2010-04-22 00:54:30",46649,4.36,23.41,7.95,1.389,12.51,104.2347,10.11,11.31,72.02,0,110.2,13.39,10.90,345.4
"2010-04-22 00:55:00",46650,4.339,29.21,6.591,1.235,12.8,104.2348,10.11,11.28,72.33,0,110.2,13.39,10.90,351.2
"2010-04-22 00:55:30",46651,4.049,25.49,5.615,1.127,12.59,104.2348,10.11,11.35,72.72,0,110.2,13.39,10.90,347.5
"2010-04-22 00:56:00",46652,4.868,21.65,12.41,1.409,14.02,104.2356,10.12,11.39,72.68,0,110.2,13.39,10.90,343.6
"2010-04-22 00:56:30",46653,4.119,24.82,5.602,1.266,11.72,104.2362,10.12,11.21,72.09,0,110.2,13.39,10.91,346.8
"2010-04-22 00:57:00",46654,2.587,15.33,6.319,0.705,9.96,104.2359,10.12,11.15,71.99,0,110.2,13.42,10.90,337.3
"2010-04-22 00:57:30",46655,3.153,23.28,5.218,0.522,10.09,104.2377,10.12,11.19,72.04,0,110.2,13.42,10.91,345.3
"2010-04-22 00:58:00",46656,4.23,27.3,5.641,1.111,12.78,104.2392,10.13,11.29,72.38,0,110.2,13.39,10.91,349.3
"2010-04-22 00:58:30",46657,4.45,22.07,7.082,1.016,12.53,104.2389,10.12,11.34,72.55,0,110.2,13.39,10.91,344.1
"2010-04-22 00:59:00",46658,4.233,21.99,7.764,1.459,12.59,104.2383,10.12,11.32,72.18,0,110.2,13.38,10.91,344.0
"2010-04-22 00:59:30",46659,3.447,26.63,8.53,0.929,11.67,104.2392,10.13,11.28,71.97,0,110.2,13.39,10.91,348.6
"2010-04-22 01:00:00",46660,5.214,35.19,7.852,1.29,14.11,104.2338,10.11,11.37,72.29,0,110.2,13.38,10.90,357.2
"2010-04-22 01:00:30",46661,4.061,28.32,7.654,1.302,12.19,104.2314,10.11,11.33,72.36,0,110.2,13.38,10.89,350.3
"2010-04-22 01:01:00",46662,3.094,22.34,6.94,0.685,10.04,104.2269,10.09,11.15,72.18,0,110.2,13.42,10.88,344.3
"2010-04-22 01:01:30",46663,2.809,19.72,10.64,0.698,10.08,104.2254,10.09,11.16,72.2,0,110.2,13.42,10.88,341.7
"2010-04-22 01:02:00",46664,2.671,14.61,6.037,1.038,10.82,104.2192,10.07,11.19,72.25,0,110.2,13.38,10.86,336.6
"2010-04-22 01:02:30",46665,4.292,25.53,11.37,0.969,14.1,104.2176,10.07,11.41,72.24,0,110.2,13.38,10.86,347.5
"2010-04-22 01:03:00",46666,4.175,25.06,7.277,1.269,12.8,104.2177,10.07,11.32,72.14,0,110.2,13.38,10.86,347.1
"2010-04-22 01:03:30",46667,3.197,23.55,5.088,1.016,10.87,104.2156,10.07,11.13,71.85,0,110.2,13.39,10.85,345.5
"2010-04-22 01:04:00",46668,3.5,27.66,5.015,1.288,11.97,104.2146,10.06,11.27,71.8,0,110.2,13.39,10.85,349.7
"2010-04-22 01:04:30",46669,4.849,26.91,9.23,1.18,13.38,104.2147,10.06,11.29,71.89,0,110.2,13.39,10.85,348.9
"2010-04-22 01:05:00",46670,2.614,15.37,4.5,0.472,10.12,104.2109,10.05,11.19,71.78,0,110.2,13.39,10.84,337.4
"2010-04-22 01:05:30",46671,2.961,17.73,4.189,0.632,10.08,104.2123,10.06,11.14,71.56,0,110.2,13.43,10.84,339.7
"2010-04-22 01:06:00",46672,4.791,34.05,7.095,1.225,12.52,104.2135,10.06,11.19,71.68,0,110.2,13.39,10.85,356.0
"2010-04-22 01:06:30",46673,4.508,32.07,6.851,1.303,13.13,104.2179,10.07,11.37,71.95,0,110.2,13.39,10.86,354.1
"2010-04-22 01:07:00",46674,3.896,33.06,6.29,1.341,12.31,104.2153,10.06,11.33,71.8,0,110.2,13.39,10.85,355.1
"2010-04-22 01:07:30",46675,3.213,33.11,4.612,0.866,11.34,104.2182,10.07,11.28,71.87,0,110.2,13.39,10.86,355.1
"2010-04-22 01:08:00",46676,3.702,33.47,8.89,1.153,11.25,104.2162,10.07,11.21,72.03,0,110.2,13.39,10.85,355.5
"2010-04-22 01:08:30",46677,4.362,32.25,7.628,1.295,12.56,104.2194,10.08,11.19,72.27,0,110.2,13.39,10.86,354.2
"2010-04-22 01:09:00",46678,3.538,31.84,9.68,1.124,11.9,104.2174,10.07,11.29,72.6,0,110.2,13.39,10.86,353.8
"2010-04-22 01:09:30",46679,3.819,34.9,5.738,0.998,10.96,104.2209,10.08,11.12,72.57,0,110.2,13.39,10.87,356.9
"2010-04-22 01:10:00",46680,4.021,30.66,5.54,1.047,11.69,104.2206,10.08,11.14,72.72,0,110.2,13.39,10.87,352.7
"2010-04-22 01:10:30",46681,4.811,34.48,9.3,1.362,14.4,104.2218,10.08,11.37,72.96,0,110.2,13.39,10.87,356.5
"2010-04-22 01:11:00",46682,3.851,28.58,7.746,1.344,12.95,104.2212,10.08,11.29,72.85,0,110.2,13.39,10.87,350.6
"2010-04-22 01:11:30",46683,3.592,25.2,6.163,1.091,10.82,104.2207,10.08,11.11,72.65,0,110.2,13.39,10.87,347.2
"2010-04-22 01:12:00",46684,4.3,32.51,6.978,1.236,12.2,104.2178,10.07,11.22,72.81,0,110.2,13.39,10.86,354.5
"2010-04-22 01:12:30",46685,3.371,31.13,3.872,0.354,10.16,104.2151,10.06,11.09,72.81,0,110.2,13.43,10.85,353.1
"2010-04-22 01:13:00",46686,3.474,32.93,5.197,1.135,11.55,104.2045,10.04,11.11,73.05,0,110.2,13.39,10.82,354.9
"2010-04-22 01:13:30",46687,4.498,34.16,8.03,1.368,12.68,104.1931,10.01,11.22,73.13,0,110.2,13.4,10.79,356.2
"2010-04-22 01:14:00",46688,3.243,27.74,7.298,1.035,11.32,104.1941,10.01,11.16,72.95,0,110.2,13.4,10.80,349.7
"2010-04-22 01:14:30",46689,4.919,32.48,10.03,1.16,14.65,104.1961,10.02,11.35,73.12,0,110.2,13.4,10.80,354.5
"2010-04-22 01:15:00",46690,3.069,26.02,7.713,1.342,11.96,104.1964,10.02,11.16,72.94,0,110.2,13.4,10.80,348.0
"2010-04-22 01:15:30",46691,3.47,35.17,5.956,0.948,11.28,104.1964,10.02,11.2,73.05,0,110.2,13.39,10.80,357.2
"2010-04-22 01:16:00",46692,3.711,40.47,7.013,1.312,10.89,104.1958,10.01,11.11,72.96,0,110.2,13.39,10.80,2.5
"2010-04-22 01:16:30",46693,3.007,30.8,4.531,0.526,10.06,104.1961,10.02,11.05,73.02,0,110.2,13.42,10.80,352.8
"2010-04-22 01:17:00",46694,3.657,25.73,8.97,1.46,11.42,104.1967,10.02,11.07,73.15,0,110.2,13.39,10.80,347.7
"2010-04-22 01:17:30",46695,3.997,27.7,4.861,1.321,11.45,104.1982,10.02,11.08,73.19,0,110.2,13.39,10.81,349.7
"2010-04-22 01:18:00",46696,4.336,31.76,8.48,1.296,13.89,104.1991,10.02,11.29,73.43,0,110.2,13.39,10.81,353.8
"2010-04-22 01:18:30",46697,4.58,34.26,8.85,1.051,14.84,104.1974,10.02,11.3,73.7,0,110.2,13.39,10.81,356.3
"2010-04-22 01:19:00",46698,4.1,28.35,7.711,1.096,12.43,104.1951,10.01,11.15,73.81,0,110.2,13.39,10.80,350.4
"2010-04-22 01:19:30",46699,4.156,37.95,7.477,1.191,12.54,104.1917,10,11.16,74.2,0,110.2,13.39,10.79,360.0
"2010-04-22 01:20:00",46700,2.558,20.43,7.598,0.526,10.32,104.1917,10,11.05,74.51,0,110.2,13.42,10.79,342.4
"2010-04-22 01:20:30",46701,2.95,24.03,8.09,0.62,10.05,104.1918,10,11.02,74.65,0,110.2,13.43,10.79,346.0
"2010-04-22 01:21:00",46702,2.844,40.24,11.78,0.629,10.69,104.1921,10.01,11.01,74.7,0,110.2,13.43,10.79,2.2
"2010-04-22 01:21:30",46703,2.987,26.93,8.92,0.675,11.01,104.1915,10,11.02,75.01,0,110.2,13.4,10.79,348.9
"2010-04-22 01:22:00",46704,3.536,31.37,9.25,1.251,13.7,104.1906,10,11.28,75.39,0,110.2,13.4,10.79,353.4
"2010-04-22 01:22:30",46705,4.538,38.88,7.635,1.373,14.93,104.1906,10,11.28,75.38,0,110.2,13.4,10.79,0.9
"2010-04-22 01:23:00",46706,4.151,39.97,8.98,1.523,14.01,104.1904,10,11.16,75.18,0,110.2,13.4,10.79,2.0
"2010-04-22 01:23:30",46707,3.64,39.83,19.25,1.24,12.58,104.1884,10,11.13,75.19,0,110.2,13.4,10.78,1.8
"2010-04-22 01:24:00",46708,3.565,52.46,7.867,0.555,10.48,104.1889,10,11.02,75.11,0,110.2,13.4,10.78,14.5
"2010-04-22 01:24:30",46709,2.658,49.08,11.59,0.486,10.26,104.1904,10,11,75.09,0,110.2,13.43,10.79,11.1
"2010-04-22 01:25:00",46710,3.87,45.96,6.35,0.418,10.49,104.1884,10,11.01,75.15,0,110.2,13.43,10.78,8.0
"2010-04-22 01:25:30",46711,3.945,51.28,7.73,1.156,11.75,104.1929,10.01,11,75.18,0,110.2,13.4,10.79,13.3
"2010-04-22 01:26:00",46712,4.254,63.75,7.964,1.244,13.76,104.1938,10.01,11.19,75.39,0,110.2,13.4,10.80,25.8
"2010-04-22 01:26:30",46713,4.102,60.9,35.54,1.456,15.29,104.1966,10.02,11.27,75.4,0,110.2,13.4,10.80,22.9
"2010-04-22 01:27:00",46714,3.523,39.96,10.65,0.985,12.84,104.1994,10.02,11.06,75,0,110.2,13.4,10.81,2.0
"2010-04-22 01:27:30",46715,3.365,36.87,6.805,1.277,11.62,104.2005,10.03,11.08,74.84,0,110.2,13.4,10.81,358.9
"2010-04-22 01:28:00",46716,3.582,46.83,13.39,1.423,12,104.2005,10.03,11.15,74.63,0,110.2,13.4,10.81,8.8
"2010-04-22 01:28:30",46717,2.417,21.74,7.26,0.391,9.75,104.2005,10.03,11.02,74.39,0,110.2,13.43,10.81,343.7
"2010-04-22 01:29:00",46718,3.224,30.09,7.844,0.353,9.9,104.2005,10.03,11.01,74.17,0,110.2,13.43,10.81,352.1
"2010-04-22 01:29:30",46719,3.273,49.39,5.369,0.272,10.44,104.2005,10.03,11.01,74.14,0,110.2,13.43,10.81,11.4
"2010-04-22 01:30:00",46720,3.614,37.52,12.07,1.266,12.28,104.2005,10.03,11.09,74.26,0,110.2,13.4,10.81,359.5
"2010-04-22 01:30:30",46721,4.924,48.64,8.84,1.442,14.68,104.2005,10.03,11.29,74.19,0,110.2,13.4,10.81,10.6
"2010-04-22 01:31:00",46722,5.302,58.42,5.846,1.135,14.46,104.2,10.03,11.22,73.85,0,110.2,13.4,10.81,20.4
"2010-04-22 01:31:30",46723,5.556,60.09,6.997,1.225,13.6,104.1988,10.02,11.18,73.69,0,110.2,13.4,10.81,22.1
"2010-04-22 01:32:00",46724,4.121,49.76,5.608,0.915,11.09,104.194,10.01,11.14,73.52,0,110.1,13.4,10.80,11.8
"2010-04-22 01:32:30",46725,4.008,48.33,1.189,0.114,9.94,104.1912,10,11,73.2,0,110.2,13.43,10.79,10.3
"2010-04-22 01:33:00",46726,4.011,51.83,2.333,0.143,10.16,104.1861,9.99,11,73.15,0,110.1,13.43,10.78,13.8
"2010-04-22 01:33:30",46727,4.246,53.31,5.266,1.127,11.07,104.1827,9.98,11,73.25,0,110.2,13.4,10.77,15.3
"2010-04-22 01:34:00",46728,4.537,58.72,8.67,1.181,12.71,104.1822,9.98,11.21,73.39,0,110.2,13.4,10.77,20.7
"2010-04-22 01:34:30",46729,5.647,65.93,9.12,1.304,14.68,104.176,9.96,11.25,73.38,0,110.2,13.4,10.75,27.9
"2010-04-22 01:35:00",46730,5.841,66.07,6.219,1.107,14.31,104.1686,9.95,11.21,73.35,0,110.2,13.4,10.73,28.1
"2010-04-22 01:35:30",46731,4.443,59.51,5.619,1.041,11.43,104.1667,9.94,11.1,73.3,0,110.2,13.4,10.73,21.5
"2010-04-22 01:36:00",46732,4.251,59.59,5.067,0.785,10.62,104.1667,9.94,11.07,73.24,0,110.2,13.39,10.73,21.6
"2010-04-22 01:36:30",46733,3.722,67,3.025,0.233,9.72,104.1667,9.94,10.97,73.18,0,110.2,13.43,10.73,29.0
"2010-04-22 01:37:00",46734,3.366,60.53,5.926,0.201,10.15,104.1667,9.94,10.96,73.2,0,110.2,13.44,10.73,22.5
"2010-04-22 01:37:30",46735,4.052,71.25,7.14,0.957,11.62,104.1667,9.94,11.09,73.4,0,110.2,13.4,10.73,33.2
"2010-04-22 01:38:00",46736,5.008,87.6,7.514,1.187,14.87,104.1627,9.93,11.13,73.57,0,110.1,13.4,10.72,49.6
"2010-04-22 01:38:30",46737,4.79,74.78,7.445,1.282,13.82,104.1585,9.92,11.15,73.63,0,110.1,13.4,10.71,36.8
"2010-04-22 01:39:00",46738,4.25,79.22,9.75,1.261,13.48,104.1559,9.91,11.16,73.6,0,110.1,13.4,10.70,41.2
"2010-04-22 01:39:30",46739,4.244,71.81,7.602,1.136,11.32,104.1503,9.9,10.98,73.31,0,110.1,13.4,10.69,33.8
"2010-04-22 01:40:00",46740,4.539,70.93,6.737,0.645,10.12,104.1413,9.88,11.01,73.25,0,110.2,13.4,10.66,32.9
"2010-04-22 01:40:30",46741,5.914,104.8,22.34,1.02,10.39,104.1333,9.86,10.92,73.39,0,110.1,13.44,10.64,66.8
"2010-04-22 01:41:00",46742,6.325,126.4,14.12,0.795,12.71,104.1331,9.85,11.05,74.44,0,110.1,13.4,10.64,88.4
"2010-04-22 01:41:30",46743,3.541,110.7,17.69,1.165,12.93,104.1333,9.86,11.01,74.74,0,110.1,13.41,10.64,72.7
"2010-04-22 01:42:00",46744,5.817,97.3,17.92,1.778,14.48,104.1328,9.85,11.2,74.43,0,110.1,13.41,10.64,59.3
"2010-04-22 01:42:30",46745,9.05,128.7,13.39,1.857,15.01,104.1328,9.85,11.16,74.72,0,110.1,13.4,10.64,90.7
"2010-04-22 01:43:00",46746,8.95,117.7,11.47,1.517,13.98,104.1396,9.87,11.07,75.3,0,110.1,13.4,10.66,79.7
"2010-04-22 01:43:30",46747,6.961,108.4,14.35,0.789,10.77,104.1534,9.91,10.89,75.23,0,110.2,13.4,10.69,70.4
"2010-04-22 01:44:00",46748,7.57,100.9,13.88,0.883,10.83,104.1627,9.93,10.91,75.38,0,110.2,13.44,10.72,62.9
"2010-04-22 01:44:30",46749,9.43,100,10.41,2.172,13.55,104.1667,9.94,11.07,75.44,0,110.1,13.4,10.73,62.0
"2010-04-22 01:45:00",46750,10.15,122.7,8.06,1.07,15.71,104.1669,9.94,11.23,75.85,0,110.1,13.4,10.73,84.7
"2010-04-22 01:45:30",46751,8.66,130.3,4.858,1.215,15.14,104.1791,9.97,11.2,76.05,0,110.1,13.4,10.76,92.3
"2010-04-22 01:46:00",46752,8.14,118,17.72,1.455,13.94,104.1898,10,11.17,76.1,0,110.1,13.4,10.79,80.0
"2010-04-22 01:46:30",46753,8.87,106.7,7.173,1.6,12.56,104.2005,10.03,11.11,75.94,0,110.1,13.4,10.81,68.7
"2010-04-22 01:47:00",46754,7.867,107.7,9.57,0.725,10.75,104.2005,10.03,10.97,75.86,0,110.1,13.44,10.81,69.7
"2010-04-22 01:47:30",46755,8.01,100.3,4.689,1.132,12.53,104.2005,10.03,11.15,76.03,0,110.1,13.4,10.81,62.3
"2010-04-22 01:48:00",46756,8.11,107.6,16.43,1.457,14.7,104.2093,10.05,11.21,76.05,0,110.1,13.4,10.84,69.6
"2010-04-22 01:48:30",46757,8.3,115.8,9.33,1.036,15.52,104.2237,10.09,11.28,76.06,0,110.1,13.4,10.87,77.8
"2010-04-22 01:49:00",46758,6.849,113.7,10.71,1.489,13.77,104.2313,10.11,11.29,75.83,0,110.1,13.4,10.89,75.7
"2010-04-22 01:49:30",46759,6.519,102.3,7.465,0.937,12.03,104.2333,10.11,11.11,75.22,0,110.1,13.4,10.90,64.3
"2010-04-22 01:50:00",46760,8.16,103.2,10.39,1.117,12.26,104.2319,10.11,11.16,74.92,0,110.1,13.39,10.89,65.2